GSAT0202 (GALILEO 6)

Last updated on Thu Oct 30 2025 00:02:35 GMT+0000 (Coordinated Universal Time)

1 40129U 14050B 25301.90916814 -.00000017 00000+0 00000+0 0 9992 2 40129 49.1443 281.9723 1644312 171.3363 191.9130 1.85520353 76199
UTC large
Height (km)
Speed (km/s)
/
Latitude / Longitude
Inclination (degrees)
Orbital Period (minutes)
Azimuth
Elevation
Range (km)
Doppler Factor

Next 0 passes for location: London (51.5072 / 0.1276)

Sorry there are no passes over London.